Weather History for Defiance, OH

Change the Weather History Date:

Friday, November 1, 2013

  Actual Average Record
Temperature  
Mean Temperature 53 °F -  
Max Temperature 57 °F 59 °F 82 °F (1950)
Min Temperature 46 °F 39 °F 22 °F (1988)
Degree Days  
Heating Degree Days 12    
Growing Degree Days 3 (Base 50)    
Moisture  
Dew Point 44 °F    
Average Humidity 77    
Maximum Humidity 88    
Minimum Humidity 66    
Precipitation  
Precipitation 0.06 in - - ()
Sea Level Pressure  
Sea Level Pressure 29.53 in    
Wind  
Wind Speed 10 mph (WSW)    
Max Wind Speed 17 mph    
Max Gust Speed 30 mph    
Visibility 10 miles    
Events Rain    
Averages and records for this station are not official NWS values.
T = Trace of Precipitation, MM = Missing Value Source: NWS Daily Summary

Daily Weather History Graph

Daily Weather History Graph

Search for Another Location

Airport:

Trip Planner

Search our weather history database for the weather conditions in past years. The results will help you decide how hot, cold, wet, or windy it might be!

Date:

Astronomy

Nov. 01, 2013 Rise Set
Actual Time 8:09 AM EDT 6:32 PM EDT
Civil Twilight 7:40 AM EDT 7:01 PM EDT
Nautical Twilight 7:08 AM EDT 7:33 PM EDT
Astronomical Twilight 6:35 AM EDT 8:06 PM EDT
Moon 5:59 AM EDT (11/1) 5:25 PM EDT (11/1)
Length of Visible Light 11h 20m
Length of Day
10h 23m
Waning Crescent, 4% of the Moon is Illuminated
Nov 1
Waning Crescent
Nov 3
New
Nov 10
First Quarter
Nov 17
Full
Nov 25
Last Quarter

Hourly Weather History & Observations

Time (EDT) Temp. Windchill Dew Point Humidity Pressure Visibility Wind Dir Wind Speed Gust Speed Precip Events Conditions
12:08 AM 60.8 °F - 55.4 °F 82% 29.29 in 5.0 mi WSW 10.4 mph 23.0 mph 0.03 in Rain Rain
12:29 AM 59.0 °F - 55.4 °F 88% 29.26 in 10.0 mi West 10.4 mph 19.6 mph 0.05 in Rain Light Rain
12:53 AM 57.9 °F - 54.0 °F 87% 29.27 in 10.0 mi WSW 10.4 mph 20.7 mph 0.06 in   Mostly Cloudy
1:42 AM 57.2 °F - 51.8 °F 82% 29.30 in 10.0 mi WSW 13.8 mph 23.0 mph N/A   Overcast
1:53 AM 55.9 °F - 52.0 °F 87% 29.30 in 10.0 mi WSW 11.5 mph 21.9 mph N/A   Mostly Cloudy
2:13 AM 55.4 °F - 51.8 °F 88% 29.32 in 10.0 mi WSW 13.8 mph 25.3 mph N/A   Overcast
2:21 AM 55.4 °F - 51.8 °F 88% 29.33 in 10.0 mi WSW 13.8 mph 25.3 mph N/A   Overcast
2:30 AM 55.4 °F - 48.2 °F 77% 29.33 in 10.0 mi West 12.7 mph 25.3 mph N/A   Mostly Cloudy
2:53 AM 54.0 °F - 48.0 °F 80% 29.36 in 10.0 mi WSW 10.4 mph 24.2 mph N/A   Mostly Cloudy
3:34 AM 51.8 °F - 46.4 °F 82% 29.38 in 10.0 mi WSW 10.4 mph 21.9 mph N/A   Mostly Cloudy
3:43 AM 51.8 °F - 46.4 °F 82% 29.39 in 10.0 mi WSW 17.3 mph 29.9 mph N/A   Mostly Cloudy
3:53 AM 52.0 °F - 46.0 °F 80% 29.40 in 10.0 mi West 12.7 mph 21.9 mph N/A   Mostly Cloudy
4:53 AM 48.9 °F - 41.0 °F 74% 29.42 in 10.0 mi WSW 13.8 mph 29.9 mph N/A   Mostly Cloudy
5:53 AM 48.0 °F - 39.9 °F 74% 29.46 in 10.0 mi WSW 12.7 mph 23.0 mph N/A   Mostly Cloudy
6:02 AM 46.4 °F 41.5 °F 39.2 °F 76% 29.46 in 10.0 mi WSW 10.4 mph 20.7 mph N/A   Scattered Clouds
6:23 AM 48.2 °F - 39.2 °F 71% 29.49 in 10.0 mi WSW 10.4 mph 19.6 mph N/A   Mostly Cloudy
6:53 AM 48.0 °F - 39.0 °F 71% 29.52 in 10.0 mi WSW 9.2 mph 20.7 mph N/A   Overcast
7:53 AM 48.0 °F - 39.9 °F 74% 29.55 in 10.0 mi WSW 9.2 mph 16.1 mph N/A   Overcast
8:53 AM 48.0 °F - 41.0 °F 77% 29.58 in 9.0 mi WSW 13.8 mph 21.9 mph N/A   Overcast
9:23 AM 48.2 °F - 42.8 °F 82% 29.59 in 8.0 mi SW 12.7 mph 23.0 mph N/A   Overcast
9:44 AM 48.2 °F - 42.8 °F 82% 29.59 in 6.0 mi SW 10.4 mph 21.9 mph N/A   Haze
9:53 AM 48.0 °F - 43.0 °F 83% 29.60 in 7.0 mi SW 11.5 mph 17.3 mph N/A   Overcast
10:09 AM 48.2 °F - 42.8 °F 82% 29.59 in 7.0 mi SW 13.8 mph - N/A   Overcast
10:40 AM 48.2 °F - 42.8 °F 82% 29.59 in 9.0 mi SW 12.7 mph 18.4 mph N/A   Overcast
10:53 AM 50.0 °F - 43.0 °F 77% 29.59 in 10.0 mi SW 10.4 mph 23.0 mph N/A   Overcast
11:53 AM 52.0 °F - 42.1 °F 69% 29.60 in 10.0 mi SW 12.7 mph 19.6 mph N/A   Overcast
12:26 PM 50.0 °F - 42.8 °F 76% 29.62 in 10.0 mi SW 8.1 mph - N/A   Overcast
12:53 PM 51.1 °F - 42.1 °F 71% 29.62 in 10.0 mi SW 12.7 mph 17.3 mph N/A   Overcast
1:08 PM 51.8 °F - 41.0 °F 67% 29.62 in 10.0 mi SW 13.8 mph 19.6 mph N/A   Overcast
1:53 PM 51.1 °F - 41.0 °F 68% 29.62 in 10.0 mi WSW 9.2 mph 18.4 mph N/A   Overcast
2:53 PM 51.1 °F - 41.0 °F 68% 29.62 in 10.0 mi WSW 5.8 mph - N/A   Overcast
3:53 PM 50.0 °F - 39.9 °F 68% 29.63 in 10.0 mi West 6.9 mph - N/A   Overcast
4:08 PM 50.0 °F - 39.2 °F 66% 29.63 in 10.0 mi Variable 4.6 mph - N/A   Overcast
4:53 PM 50.0 °F - 41.0 °F 71% 29.65 in 10.0 mi WSW 5.8 mph - N/A   Overcast
5:10 PM 50.0 °F - 39.2 °F 66% 29.64 in 10.0 mi Variable 5.8 mph - N/A   Overcast
5:53 PM 50.0 °F - 39.0 °F 66% 29.66 in 10.0 mi Variable 4.6 mph - N/A   Overcast
6:53 PM 48.9 °F - 39.9 °F 71% 29.68 in 10.0 mi Calm Calm - N/A   Overcast
7:53 PM 48.0 °F - 39.9 °F 74% 29.69 in 10.0 mi WSW 3.5 mph - N/A   Overcast
8:53 PM 46.9 °F - 39.0 °F 74% 29.70 in 10.0 mi SW 4.6 mph - N/A   Overcast
9:53 PM 48.0 °F - 39.9 °F 74% 29.70 in 10.0 mi WSW 3.5 mph - N/A   Overcast
10:53 PM 48.0 °F - 39.9 °F 74% 29.71 in 10.0 mi Variable 3.5 mph - N/A   Overcast
11:48 PM 46.4 °F 45.2 °F 41.0 °F 81% 29.70 in 10.0 mi Variable 3.5 mph - N/A   Overcast
11:53 PM 46.9 °F - 41.0 °F 80% 29.71 in 10.0 mi WSW 3.5 mph - N/A   Overcast